^^
Saratoga-Weather Station Historical Data
Daily Summary for November 15, 2021 Units:  Metric    English   Both
Daily Weekly Monthly Yearly Custom
  High: Low: Average:
Temperature: 9.1 °C 6.3 °C 8 °C
Dew Point: 7.4 °C 5.3 °C 6.1 °C
Humidity: 93% 85% 88%
Wind Speed: 13km/h 0km/h 2.9km/h
Wind Gust: 17.7km/h - -
Wind- - East
Pressure: 1022.7 hPa 1021.0 hPa -
Precipitation: 0.0 mm    
Historical Graphs
 
 
Tabular Data for November 15, 2021
Time Temperature Dew Point Pressure Wind Wind Speed Wind Gust Humidity Rainfall Rate (Hourly) solar
00:04 8.9 °C 7.3 °C 1022.4 hPa East 1.4 km/h 9.7 km/h 90% 0.0 mm 0 W/m2
00:09 8.9 °C 7.3 °C 1022.4 hPa West 3.2 km/h 6.4 km/h 90% 0.0 mm 0 W/m2
00:14 8.9 °C 7.3 °C 1022.4 hPa NNE 3.2 km/h 9.7 km/h 90% 0.0 mm 0 W/m2
00:19 8.9 °C 7.3 °C 1022.4 hPa NE 1.4 km/h 6.4 km/h 90% 0.0 mm 0 W/m2
00:24 8.9 °C 7.3 °C 1022.4 hPa ESE 1.4 km/h 9.7 km/h 90% 0.0 mm 0 W/m2
00:29 8.9 °C 7.3 °C 1022.4 hPa East 1.4 km/h 6.4 km/h 90% 0.0 mm 0 W/m2
00:34 8.9 °C 7.3 °C 1022.4 hPa Calm   8 km/h 90% 0.0 mm 0 W/m2
00:39 8.9 °C 7.3 °C 1022.0 hPa ENE 4.7 km/h 9.7 km/h 90% 0.0 mm 0 W/m2
00:44 9 °C 7.4 °C 1022.0 hPa North 3.2 km/h 9.7 km/h 90% 0.0 mm 0 W/m2
00:49 9 °C 7.4 °C 1022.0 hPa ESE 9.7 km/h 11.3 km/h 90% 0.0 mm 0 W/m2
00:54 9 °C 7.4 °C 1022.0 hPa ENE 7.9 km/h 8 km/h 90% 0.0 mm 0 W/m2
00:59 8.9 °C 7.3 °C 1022.0 hPa East 1.4 km/h 14.5 km/h 90% 0.0 mm 0 W/m2
01:04 8.9 °C 7.3 °C 1021.7 hPa Calm   4.8 km/h 90% 0.0 mm 0 W/m2
01:09 8.9 °C 7.3 °C 1021.7 hPa ESE 3.2 km/h 9.7 km/h 90% 0.0 mm 0 W/m2
01:14 8.9 °C 7.3 °C 1021.7 hPa ENE 3.2 km/h 4.8 km/h 90% 0.0 mm 0 W/m2
01:19 8.9 °C 7.3 °C 1021.7 hPa SE 1.4 km/h 4.8 km/h 90% 0.0 mm 0 W/m2
01:24 8.9 °C 7.3 °C 1021.7 hPa ESE 1.4 km/h 3.2 km/h 90% 0.0 mm 0 W/m2
01:29 8.9 °C 7.3 °C 1021.7 hPa ESE 3.2 km/h 3.2 km/h 90% 0.0 mm 0 W/m2
01:34 8.9 °C 7.3 °C 1022.0 hPa NE 1.4 km/h 4.8 km/h 90% 0.0 mm 0 W/m2
01:39 8.9 °C 7.3 °C 1022.0 hPa East 3.2 km/h 3.2 km/h 90% 0.0 mm 0 W/m2
01:44 8.9 °C 7.3 °C 1022.0 hPa ESE 1.4 km/h 4.8 km/h 90% 0.0 mm 0 W/m2
01:49 8.9 °C 7.3 °C 1022.0 hPa NNE 1.4 km/h 3.2 km/h 90% 0.0 mm 0 W/m2
01:54 8.9 °C 7.3 °C 1022.0 hPa ENE 1.4 km/h 3.2 km/h 90% 0.0 mm 0 W/m2
01:59 8.9 °C 7.3 °C 1022.0 hPa East 3.2 km/h 3.2 km/h 90% 0.0 mm 0 W/m2
02:04 8.9 °C 7.3 °C 1022.0 hPa Calm     90% 0.0 mm 0 W/m2
02:09 8.9 °C 7.3 °C 1022.0 hPa ESE 3.2 km/h 11.3 km/h 90% 0.0 mm 0 W/m2
02:14 8.9 °C 7.2 °C 1022.0 hPa East 3.2 km/h 6.4 km/h 89% 0.0 mm 0 W/m2
02:19 8.9 °C 7.2 °C 1022.0 hPa SE 4.7 km/h 8 km/h 89% 0.0 mm 0 W/m2
02:24 9 °C 7.1 °C 1022.0 hPa Calm   9.7 km/h 88% 0.0 mm 0 W/m2
02:29 9 °C 7.1 °C 1022.0 hPa East 4.7 km/h 9.7 km/h 88% 0.0 mm 0 W/m2
02:34 9 °C 7.1 °C 1022.0 hPa ENE 7.9 km/h 9.7 km/h 88% 0.0 mm 0 W/m2
02:39 9 °C 7 °C 1022.0 hPa East 3.2 km/h 14.5 km/h 87% 0.0 mm 0 W/m2
02:44 9 °C 7 °C 1022.0 hPa ESE 4.7 km/h 14.5 km/h 87% 0.0 mm 0 W/m2
02:50 9 °C 7 °C 1022.0 hPa ESE 4.7 km/h 8 km/h 87% 0.0 mm 0 W/m2
02:55 9 °C 7 °C 1022.0 hPa East 4.7 km/h 12.9 km/h 87% 0.0 mm 0 W/m2
03:00 9.1 °C 6.9 °C 1022.0 hPa East 13 km/h 12.9 km/h 86% 0.0 mm 0 W/m2
03:05 9.1 °C 6.9 °C 1022.0 hPa SSE 6.4 km/h 12.9 km/h 86% 0.0 mm 0 W/m2
03:10 9 °C 6.8 °C 1022.0 hPa East 4.7 km/h 12.9 km/h 86% 0.0 mm 0 W/m2
03:15 9 °C 6.8 °C 1022.0 hPa East 4.7 km/h 6.4 km/h 86% 0.0 mm 0 W/m2
03:20 9 °C 6.8 °C 1022.0 hPa East 1.4 km/h 9.7 km/h 86% 0.0 mm 0 W/m2
03:25 8.9 °C 6.7 °C 1022.0 hPa ESE 3.2 km/h 16.1 km/h 86% 0.0 mm 0 W/m2
03:30 8.9 °C 6.5 °C 1022.0 hPa ENE 7.9 km/h 14.5 km/h 85% 0.0 mm 0 W/m2
03:35 8.9 °C 6.5 °C 1022.0 hPa Calm   9.7 km/h 85% 0.0 mm 0 W/m2
03:40 8.9 °C 6.7 °C 1022.0 hPa East 6.4 km/h 6.4 km/h 86% 0.0 mm 0 W/m2
03:45 8.9 °C 6.7 °C 1022.0 hPa ESE 4.7 km/h 17.7 km/h 86% 0.0 mm 0 W/m2
03:50 8.8 °C 6.4 °C 1022.0 hPa SE 13 km/h 16.1 km/h 85% 0.0 mm 0 W/m2
03:55 8.8 °C 6.4 °C 1022.0 hPa East 4.7 km/h 12.9 km/h 85% 0.0 mm 0 W/m2
04:00 8.8 °C 6.4 °C 1022.0 hPa East 4.7 km/h 9.7 km/h 85% 0.0 mm 0 W/m2
04:05 8.8 °C 6.6 °C 1022.0 hPa East 4.7 km/h 6.4 km/h 86% 0.0 mm 0 W/m2
04:10 8.7 °C 6.5 °C 1022.0 hPa ENE 3.2 km/h 8 km/h 86% 0.0 mm 0 W/m2
04:15 8.7 °C 6.5 °C 1022.0 hPa East 13 km/h 14.5 km/h 86% 0.0 mm 0 W/m2
04:20 8.7 °C 6.5 °C 1022.0 hPa East 3.2 km/h 9.7 km/h 86% 0.0 mm 0 W/m2
04:25 8.7 °C 6.5 °C 1022.0 hPa ENE 1.4 km/h 14.5 km/h 86% 0.0 mm 0 W/m2
04:30 8.6 °C 6.4 °C 1022.0 hPa NE 3.2 km/h 16.1 km/h 86% 0.0 mm 0 W/m2
04:35 8.6 °C 6.4 °C 1022.0 hPa SE 6.4 km/h 12.9 km/h 86% 0.0 mm 0 W/m2
04:40 8.6 °C 6.2 °C 1022.0 hPa East 4.7 km/h 12.9 km/h 85% 0.0 mm 0 W/m2
04:45 8.6 °C 6.2 °C 1022.0 hPa SE 6.4 km/h 8 km/h 85% 0.0 mm 0 W/m2
04:50 8.6 °C 6.2 °C 1022.0 hPa East 3.2 km/h 9.7 km/h 85% 0.0 mm 0 W/m2
04:55 8.6 °C 6.2 °C 1022.0 hPa ESE 6.4 km/h 11.3 km/h 85% 0.0 mm 0 W/m2
05:00 8.5 °C 6.1 °C 1022.0 hPa Calm   6.4 km/h 85% 0.0 mm 0 W/m2
05:05 8.5 °C 6.3 °C 1022.0 hPa ENE 6.4 km/h 16.1 km/h 86% 0.0 mm 0 W/m2
05:10 8.4 °C 6.2 °C 1022.0 hPa East 6.4 km/h 6.4 km/h 86% 0.0 mm 0 W/m2
05:15 8.4 °C 6.2 °C 1022.0 hPa East 3.2 km/h 16.1 km/h 86% 0.0 mm 0 W/m2
05:20 8.4 °C 6.2 °C 1022.0 hPa ESE 3.2 km/h 6.4 km/h 86% 0.0 mm 0 W/m2
05:25 8.4 °C 6.2 °C 1022.0 hPa East 3.2 km/h 16.1 km/h 86% 0.0 mm 0 W/m2
05:30 8.3 °C 6.1 °C 1022.0 hPa Calm   6.4 km/h 86% 0.0 mm 0 W/m2
05:35 8.3 °C 6.1 °C 1021.7 hPa NE 11.1 km/h 16.1 km/h 86% 0.0 mm 0 W/m2
05:40 8.3 °C 6.1 °C 1022.0 hPa ENE 1.4 km/h 9.7 km/h 86% 0.0 mm 0 W/m2
05:45 8.3 °C 6.1 °C 1022.0 hPa ENE 6.4 km/h 14.5 km/h 86% 0.0 mm 0 W/m2
05:50 8.3 °C 5.9 °C 1022.0 hPa ESE 4.7 km/h 9.7 km/h 85% 0.0 mm 0 W/m2
05:55 8.3 °C 5.9 °C 1022.0 hPa ESE 6.4 km/h 9.7 km/h 85% 0.0 mm 0 W/m2
06:00 8.3 °C 5.9 °C 1021.7 hPa East 9.7 km/h 14.5 km/h 85% 0.0 mm 0 W/m2
06:05 8.3 °C 5.9 °C 1021.7 hPa ENE 4.7 km/h 12.9 km/h 85% 0.0 mm 0 W/m2
06:10 8.3 °C 5.9 °C 1021.7 hPa ESE 4.7 km/h 11.3 km/h 85% 0.0 mm 0 W/m2
06:15 8.3 °C 5.9 °C 1021.7 hPa NE 6.4 km/h 16.1 km/h 85% 0.0 mm 0 W/m2
06:20 8.2 °C 5.8 °C 1021.7 hPa NE 9.7 km/h 16.1 km/h 85% 0.0 mm 0 W/m2
06:25 8.2 °C 5.8 °C 1021.7 hPa East 11.1 km/h 14.5 km/h 85% 0.0 mm 0 W/m2
06:30 8.2 °C 5.8 °C 1022.0 hPa SE 7.9 km/h 16.1 km/h 85% 0.0 mm 0 W/m2
06:35 8.2 °C 5.8 °C 1022.0 hPa East 1.4 km/h 4.8 km/h 85% 0.0 mm 0 W/m2
06:40 8.2 °C 5.8 °C 1021.7 hPa ENE 6.4 km/h 11.3 km/h 85% 0.0 mm 0 W/m2
06:45 8.2 °C 5.8 °C 1022.0 hPa NE 4.7 km/h 8 km/h 85% 0.0 mm 0 W/m2
06:50 8.2 °C 5.8 °C 1022.0 hPa ESE 9.7 km/h 9.7 km/h 85% 0.0 mm 0 W/m2
06:55 8.1 °C 5.7 °C 1022.0 hPa WNW 3.2 km/h 12.9 km/h 85% 0.0 mm 0 W/m2
07:00 8.1 °C 5.7 °C 1022.0 hPa ESE 1.4 km/h 4.8 km/h 85% 0.0 mm 0 W/m2
07:05 8.1 °C 5.9 °C 1022.0 hPa ENE 6.4 km/h 6.4 km/h 86% 0.0 mm 0 W/m2
07:10 8.1 °C 5.9 °C 1022.0 hPa NE 1.4 km/h 4.8 km/h 86% 0.0 mm 0 W/m2
07:15 8.1 °C 5.9 °C 1022.0 hPa East 1.4 km/h 17.7 km/h 86% 0.0 mm 0 W/m2
07:20 8.1 °C 5.9 °C 1022.4 hPa SSE 1.4 km/h 8 km/h 86% 0.0 mm 0 W/m2
07:25 8.1 °C 5.9 °C 1022.0 hPa ENE 3.2 km/h 17.7 km/h 86% 0.0 mm 0 W/m2
07:30 8.1 °C 5.9 °C 1022.0 hPa ENE 3.2 km/h 6.4 km/h 86% 0.0 mm 0 W/m2
07:35 8.1 °C 5.9 °C 1022.4 hPa East 1.4 km/h 12.9 km/h 86% 0.0 mm 0 W/m2
07:40 8.1 °C 5.9 °C 1022.4 hPa ENE 6.4 km/h 9.7 km/h 86% 0.0 mm 0 W/m2
07:45 8.1 °C 5.9 °C 1022.0 hPa ENE 1.4 km/h 8 km/h 86% 0.0 mm 0 W/m2
07:50 8.1 °C 5.9 °C 1022.4 hPa ENE 1.4 km/h 9.7 km/h 86% 0.0 mm 0 W/m2
07:55 8 °C 5.8 °C 1022.4 hPa Calm   3.2 km/h 86% 0.0 mm 0 W/m2
08:00 8 °C 6 °C 1022.4 hPa NNE 3.2 km/h 11.3 km/h 87% 0.0 mm 0 W/m2
08:05 8 °C 6 °C 1022.4 hPa East 3.2 km/h 8 km/h 87% 0.0 mm 0 W/m2
08:10 8 °C 6 °C 1022.4 hPa Calm   9.7 km/h 87% 0.0 mm 0 W/m2
08:15 8 °C 6 °C 1022.4 hPa Calm   6.4 km/h 87% 0.0 mm 0 W/m2
08:20 7.9 °C 5.9 °C 1022.4 hPa Calm   4.8 km/h 87% 0.0 mm 5 W/m2
08:25 8 °C 6 °C 1022.4 hPa Calm   3.2 km/h 87% 0.0 mm 7 W/m2
08:30 7.9 °C 5.9 °C 1022.4 hPa ENE 1.4 km/h 6.4 km/h 87% 0.0 mm 5 W/m2
08:35 7.9 °C 5.9 °C 1022.4 hPa NNE 3.2 km/h 4.8 km/h 87% 0.0 mm 7 W/m2
08:40 7.9 °C 5.9 °C 1022.4 hPa ENE 1.4 km/h 6.4 km/h 87% 0.0 mm 7 W/m2
08:45 7.9 °C 5.9 °C 1022.4 hPa East 1.4 km/h 4.8 km/h 87% 0.0 mm 9 W/m2
08:50 7.9 °C 6 °C 1022.4 hPa ENE 1.4 km/h 3.2 km/h 88% 0.0 mm 11 W/m2
08:55 7.9 °C 6 °C 1022.7 hPa East 1.4 km/h 4.8 km/h 88% 0.0 mm 11 W/m2
09:00 7.9 °C 6 °C 1022.7 hPa ESE 1.4 km/h 4.8 km/h 88% 0.0 mm 11 W/m2
09:05 7.9 °C 6 °C 1022.7 hPa SE 1.4 km/h 4.8 km/h 88% 0.0 mm 11 W/m2
09:10 7.9 °C 6 °C 1022.7 hPa East 3.2 km/h 6.4 km/h 88% 0.0 mm 11 W/m2
09:15 7.9 °C 6 °C 1022.4 hPa East 1.4 km/h 3.2 km/h 88% 0.0 mm 12 W/m2
09:20 7.9 °C 6 °C 1022.4 hPa ESE 1.4 km/h 6.4 km/h 88% 0.0 mm 14 W/m2
09:25 7.9 °C 6 °C 1022.4 hPa ENE 1.4 km/h 4.8 km/h 88% 0.0 mm 14 W/m2
09:30 7.9 °C 6 °C 1022.7 hPa ENE 3.2 km/h 4.8 km/h 88% 0.0 mm 19 W/m2
09:35 7.9 °C 6 °C 1022.7 hPa East 3.2 km/h 3.2 km/h 88% 0.0 mm 19 W/m2
09:40 7.9 °C 6 °C 1022.7 hPa NE 3.2 km/h 6.4 km/h 88% 0.0 mm 19 W/m2
09:45 7.9 °C 6 °C 1022.7 hPa East 1.4 km/h 6.4 km/h 88% 0.0 mm 19 W/m2
09:50 7.9 °C 6 °C 1022.7 hPa ENE 3.2 km/h 4.8 km/h 88% 0.0 mm 19 W/m2
09:55 7.9 °C 6 °C 1022.7 hPa WNW 1.4 km/h 9.7 km/h 88% 0.0 mm 23 W/m2
10:01 7.9 °C 5.9 °C 1022.7 hPa ENE 11.1 km/h 11.3 km/h 87% 0.0 mm 25 W/m2
10:06 8 °C 6 °C 1022.7 hPa ENE 4.7 km/h 6.4 km/h 87% 0.0 mm 23 W/m2
10:11 8 °C 6 °C 1022.7 hPa East 3.2 km/h 3.2 km/h 87% 0.0 mm 25 W/m2
10:16 8.1 °C 6.1 °C 1022.4 hPa ENE 4.7 km/h 6.4 km/h 87% 0.0 mm 25 W/m2
10:21 8 °C 6 °C 1022.7 hPa NE 6.4 km/h 8 km/h 87% 0.0 mm 26 W/m2
10:26 8.1 °C 6.1 °C 1022.4 hPa ESE 4.7 km/h 14.5 km/h 87% 0.0 mm 28 W/m2
10:31 8.1 °C 6.1 °C 1022.7 hPa NE 3.2 km/h 8 km/h 87% 0.0 mm 26 W/m2
10:36 8.1 °C 6.1 °C 1022.7 hPa Calm   12.9 km/h 87% 0.0 mm 28 W/m2
10:41 8.1 °C 6.1 °C 1022.7 hPa SE 1.4 km/h 4.8 km/h 87% 0.0 mm 28 W/m2
10:46 8.1 °C 6.1 °C 1022.4 hPa NE 1.4 km/h 4.8 km/h 87% 0.0 mm 32 W/m2
10:51 8.1 °C 6.1 °C 1022.4 hPa NE 3.2 km/h 8 km/h 87% 0.0 mm 37 W/m2
10:56 8.1 °C 6.1 °C 1022.4 hPa East 3.2 km/h 11.3 km/h 87% 0.0 mm 33 W/m2
11:01 8.2 °C 6.2 °C 1022.4 hPa Calm   4.8 km/h 87% 0.0 mm 33 W/m2
11:06 8.2 °C 6.2 °C 1022.7 hPa Calm   11.3 km/h 87% 0.0 mm 33 W/m2
11:11 8.2 °C 6.2 °C 1022.7 hPa NE 6.4 km/h 6.4 km/h 87% 0.0 mm 35 W/m2
11:16 8.2 °C 6.2 °C 1022.7 hPa NE 1.4 km/h 4.8 km/h 87% 0.0 mm 40 W/m2
11:21 8.2 °C 6.2 °C 1022.7 hPa SE 3.2 km/h 9.7 km/h 87% 0.0 mm 44 W/m2
11:26 8.2 °C 6.2 °C 1022.7 hPa Calm   3.2 km/h 87% 0.0 mm 39 W/m2
11:31 8.2 °C 6.2 °C 1022.7 hPa ENE 1.4 km/h 8 km/h 87% 0.0 mm 44 W/m2
11:36 8.2 °C 6 °C 1022.7 hPa ENE 3.2 km/h 11.3 km/h 86% 0.0 mm 42 W/m2
11:41 8.3 °C 6.1 °C 1022.4 hPa NNE 4.7 km/h 4.8 km/h 86% 0.0 mm 40 W/m2
11:46 8.2 °C 6 °C 1022.4 hPa Calm   4.8 km/h 86% 0.0 mm 37 W/m2
11:51 8.3 °C 6.1 °C 1022.4 hPa ENE 7.9 km/h 8 km/h 86% 0.0 mm 33 W/m2
11:56 8.3 °C 6.1 °C 1022.4 hPa East 3.2 km/h 12.9 km/h 86% 0.0 mm 37 W/m2
12:01 8.3 °C 6.1 °C 1022.4 hPa East 3.2 km/h 6.4 km/h 86% 0.0 mm 35 W/m2
12:06 8.3 °C 6.1 °C 1022.4 hPa NE 1.4 km/h 4.8 km/h 86% 0.0 mm 35 W/m2
12:11 8.3 °C 6.1 °C 1022.4 hPa East 4.7 km/h 4.8 km/h 86% 0.0 mm 40 W/m2
12:16 8.3 °C 6.1 °C 1022.4 hPa ENE 4.7 km/h 11.3 km/h 86% 0.0 mm 44 W/m2
12:21 8.3 °C 6.1 °C 1022.4 hPa East 4.7 km/h 8 km/h 86% 0.0 mm 40 W/m2
12:26 8.3 °C 6.1 °C 1022.0 hPa ENE 3.2 km/h 14.5 km/h 86% 0.0 mm 37 W/m2
12:31 8.3 °C 6.1 °C 1022.0 hPa ENE 1.4 km/h 4.8 km/h 86% 0.0 mm 39 W/m2
12:36 8.3 °C 6.1 °C 1022.0 hPa Calm   14.5 km/h 86% 0.0 mm 40 W/m2
12:41 8.3 °C 6.1 °C 1022.0 hPa ENE 6.4 km/h 9.7 km/h 86% 0.0 mm 39 W/m2
12:46 8.3 °C 6.1 °C 1022.0 hPa Calm   9.7 km/h 86% 0.0 mm 35 W/m2
12:51 8.3 °C 6.1 °C 1022.0 hPa NE 1.4 km/h 6.4 km/h 86% 0.0 mm 28 W/m2
12:56 8.3 °C 6.3 °C 1022.0 hPa ESE 3.2 km/h 3.2 km/h 87% 0.0 mm 26 W/m2
13:01 8.3 °C 6.3 °C 1022.0 hPa East 4.7 km/h 4.8 km/h 87% 0.0 mm 25 W/m2
13:06 8.3 °C 6.3 °C 1022.0 hPa ENE 4.7 km/h 6.4 km/h 87% 0.0 mm 26 W/m2
13:11 8.3 °C 6.3 °C 1022.0 hPa East 3.2 km/h 4.8 km/h 87% 0.0 mm 30 W/m2
13:16 8.3 °C 6.3 °C 1021.7 hPa East 4.7 km/h 9.7 km/h 87% 0.0 mm 28 W/m2
13:21 8.3 °C 6.3 °C 1021.7 hPa SE 1.4 km/h 4.8 km/h 87% 0.0 mm 26 W/m2
13:26 8.3 °C 6.3 °C 1021.7 hPa ENE 3.2 km/h 9.7 km/h 87% 0.0 mm 30 W/m2
13:31 8.3 °C 6.3 °C 1021.7 hPa East 3.2 km/h 3.2 km/h 87% 0.0 mm 35 W/m2
13:36 8.3 °C 6.3 °C 1021.7 hPa NNE 3.2 km/h 9.7 km/h 87% 0.0 mm 30 W/m2
13:41 8.3 °C 6.3 °C 1021.7 hPa ENE 3.2 km/h 4.8 km/h 87% 0.0 mm 28 W/m2
13:46 8.3 °C 6.3 °C 1021.7 hPa NE 9.7 km/h 16.1 km/h 87% 0.0 mm 30 W/m2
13:51 8.3 °C 6.3 °C 1021.7 hPa East 3.2 km/h 8 km/h 87% 0.0 mm 33 W/m2
13:56 8.2 °C 6.2 °C 1021.3 hPa ESE 3.2 km/h 16.1 km/h 87% 0.0 mm 30 W/m2
14:01 8.3 °C 6.3 °C 1021.3 hPa ESE 4.7 km/h 8 km/h 87% 0.0 mm 30 W/m2
14:06 8.3 °C 6.3 °C 1021.3 hPa ENE 1.4 km/h 4.8 km/h 87% 0.0 mm 28 W/m2
14:11 8.3 °C 6.3 °C 1021.3 hPa East 3.2 km/h 12.9 km/h 87% 0.0 mm 26 W/m2
14:16 8.3 °C 6.3 °C 1021.3 hPa Calm   3.2 km/h 87% 0.0 mm 28 W/m2
14:21 8.3 °C 6.3 °C 1021.3 hPa Calm   3.2 km/h 87% 0.0 mm 26 W/m2
14:26 8.3 °C 6.3 °C 1021.3 hPa ENE 1.4 km/h 9.7 km/h 87% 0.0 mm 32 W/m2
14:31 8.3 °C 6.3 °C 1021.3 hPa NNE 1.4 km/h 9.7 km/h 87% 0.0 mm 25 W/m2
14:36 8.2 °C 6.2 °C 1021.3 hPa North 1.4 km/h 8 km/h 87% 0.0 mm 25 W/m2
14:41 8.2 °C 6.2 °C 1021.0 hPa NE 3.2 km/h 11.3 km/h 87% 0.0 mm 25 W/m2
14:46 8.2 °C 6.2 °C 1021.0 hPa NNE 3.2 km/h 6.4 km/h 87% 0.0 mm 25 W/m2
14:51 8.2 °C 6.2 °C 1021.0 hPa ESE 6.4 km/h 6.4 km/h 87% 0.0 mm 21 W/m2
14:56 8.2 °C 6.2 °C 1021.0 hPa ENE 4.7 km/h 6.4 km/h 87% 0.0 mm 19 W/m2
15:01 8.2 °C 6.2 °C 1021.0 hPa East 9.7 km/h 9.7 km/h 87% 0.0 mm 19 W/m2
15:06 8.2 °C 6.2 °C 1021.0 hPa ESE 1.4 km/h 6.4 km/h 87% 0.0 mm 16 W/m2
15:11 8.2 °C 6.2 °C 1021.3 hPa Calm   1.6 km/h 87% 0.0 mm 14 W/m2
15:16 8.2 °C 6.2 °C 1021.3 hPa ENE 3.2 km/h 9.7 km/h 87% 0.0 mm 14 W/m2
15:22 8.2 °C 6.2 °C 1021.3 hPa East 3.2 km/h 11.3 km/h 87% 0.0 mm 14 W/m2
15:27 8.2 °C 6.2 °C 1021.3 hPa East 1.4 km/h 6.4 km/h 87% 0.0 mm 12 W/m2
15:32 8.2 °C 6.2 °C 1021.3 hPa ENE 3.2 km/h 9.7 km/h 87% 0.0 mm 12 W/m2
15:37 8.1 °C 6.1 °C 1021.3 hPa ESE 3.2 km/h 8 km/h 87% 0.0 mm 9 W/m2
15:42 8.1 °C 6.1 °C 1021.3 hPa NE 4.7 km/h 8 km/h 87% 0.0 mm 7 W/m2
15:47 8.1 °C 6.2 °C 1021.3 hPa ENE 1.4 km/h 6.4 km/h 88% 0.0 mm 7 W/m2
15:52 8.1 °C 6.2 °C 1021.3 hPa ENE 1.4 km/h 3.2 km/h 88% 0.0 mm 7 W/m2
15:57 8.1 °C 6.2 °C 1021.3 hPa ENE 1.4 km/h 4.8 km/h 88% 0.0 mm 7 W/m2
16:02 8 °C 6.1 °C 1021.3 hPa ENE 1.4 km/h 4.8 km/h 88% 0.0 mm 5 W/m2
16:07 8 °C 6.1 °C 1021.3 hPa East 3.2 km/h 9.7 km/h 88% 0.0 mm 5 W/m2
16:12 8 °C 6.1 °C 1021.3 hPa East 3.2 km/h 6.4 km/h 88% 0.0 mm 5 W/m2
16:17 7.9 °C 6 °C 1021.3 hPa East 3.2 km/h 9.7 km/h 88% 0.0 mm 0 W/m2
16:22 7.9 °C 6 °C 1021.3 hPa ENE 1.4 km/h 6.4 km/h 88% 0.0 mm 0 W/m2
16:27 7.9 °C 6 °C 1021.7 hPa NE 4.7 km/h 4.8 km/h 88% 0.0 mm 0 W/m2
16:32 7.9 °C 6 °C 1021.7 hPa NE 1.4 km/h 6.4 km/h 88% 0.0 mm 0 W/m2
16:37 7.9 °C 6 °C 1021.7 hPa East 4.7 km/h 6.4 km/h 88% 0.0 mm 0 W/m2
16:42 7.8 °C 6.1 °C 1021.7 hPa ENE 1.4 km/h 6.4 km/h 89% 0.0 mm 0 W/m2
16:47 7.8 °C 6.1 °C 1021.3 hPa Calm   4.8 km/h 89% 0.0 mm 0 W/m2
16:52 7.8 °C 6.1 °C 1021.7 hPa East 4.7 km/h 9.7 km/h 89% 0.0 mm 0 W/m2
16:57 7.7 °C 6 °C 1021.7 hPa ENE 1.4 km/h 3.2 km/h 89% 0.0 mm 0 W/m2
17:02 7.7 °C 6 °C 1021.7 hPa East 3.2 km/h 4.8 km/h 89% 0.0 mm 0 W/m2
17:07 7.7 °C 6 °C 1021.7 hPa East 4.7 km/h 4.8 km/h 89% 0.0 mm 0 W/m2
17:12 7.7 °C 6.2 °C 1021.7 hPa East 3.2 km/h 6.4 km/h 90% 0.0 mm 0 W/m2
17:17 7.6 °C 6.1 °C 1021.7 hPa NE 1.4 km/h 4.8 km/h 90% 0.0 mm 0 W/m2
17:22 7.6 °C 6.1 °C 1021.7 hPa East 1.4 km/h 4.8 km/h 90% 0.0 mm 0 W/m2
17:27 7.6 °C 6.1 °C 1021.7 hPa ENE 3.2 km/h 6.4 km/h 90% 0.0 mm 0 W/m2
17:32 7.5 °C 6 °C 1021.7 hPa East 4.7 km/h 6.4 km/h 90% 0.0 mm 0 W/m2
17:37 7.4 °C 5.9 °C 1021.7 hPa NE 4.7 km/h 12.9 km/h 90% 0.0 mm 0 W/m2
17:42 7.4 °C 6 °C 1022.0 hPa SE 3.2 km/h 3.2 km/h 91% 0.0 mm 0 W/m2
17:47 7.4 °C 6 °C 1022.0 hPa NE 4.7 km/h 12.9 km/h 91% 0.0 mm 0 W/m2
17:52 7.3 °C 5.9 °C 1022.0 hPa NE 1.4 km/h 6.4 km/h 91% 0.0 mm 0 W/m2
17:57 7.3 °C 5.9 °C 1022.0 hPa ENE 3.2 km/h 4.8 km/h 91% 0.0 mm 0 W/m2
18:09 7.3 °C 5.9 °C 1022.0 hPa NE 4.7 km/h 8 km/h 91% 0.0 mm 0 W/m2
18:17 7.3 °C 5.9 °C 1021.7 hPa ENE 1.4 km/h 6.4 km/h 91% 0.0 mm 0 W/m2
18:22 7.3 °C 5.9 °C 1021.7 hPa NE 11.3 km/h 11.3 km/h 91% 0.0 mm 0 W/m2
18:27 7.2 °C 5.8 °C 1022.0 hPa ENE 1.4 km/h 4.8 km/h 91% 0.0 mm 0 W/m2
18:32 7.2 °C 5.8 °C 1022.0 hPa NE 1.4 km/h 8 km/h 91% 0.0 mm 0 W/m2
18:37 7.2 °C 5.8 °C 1022.0 hPa East 3.2 km/h 4.8 km/h 91% 0.0 mm 0 W/m2
18:42 7.2 °C 5.8 °C 1022.0 hPa ESE 3.2 km/h 3.2 km/h 91% 0.0 mm 0 W/m2
18:47 7.2 °C 5.8 °C 1021.7 hPa NE 3.2 km/h 6.4 km/h 91% 0.0 mm 0 W/m2
18:52 7.2 °C 5.7 °C 1021.7 hPa East 3.2 km/h 4.8 km/h 90% 0.0 mm 0 W/m2
18:57 7.2 °C 5.7 °C 1022.0 hPa East 1.4 km/h 3.2 km/h 90% 0.0 mm 0 W/m2
19:02 7.2 °C 5.7 °C 1022.0 hPa ENE 4.7 km/h 4.8 km/h 90% 0.0 mm 0 W/m2
19:07 7.2 °C 5.7 °C 1022.0 hPa ENE 3.2 km/h 4.8 km/h 90% 0.0 mm 0 W/m2
19:12 7.2 °C 5.7 °C 1022.0 hPa Calm   4.8 km/h 90% 0.0 mm 0 W/m2
19:17 7.2 °C 5.7 °C 1022.0 hPa ESE 4.7 km/h 6.4 km/h 90% 0.0 mm 0 W/m2
19:22 7.2 °C 5.7 °C 1022.0 hPa Calm   3.2 km/h 90% 0.0 mm 0 W/m2
19:27 7.2 °C 5.7 °C 1022.0 hPa East 3.2 km/h 4.8 km/h 90% 0.0 mm 0 W/m2
19:32 7.2 °C 5.7 °C 1022.0 hPa ESE 4.7 km/h 6.4 km/h 90% 0.0 mm 0 W/m2
19:37 7.2 °C 5.7 °C 1022.0 hPa NW 1.4 km/h 3.2 km/h 90% 0.0 mm 0 W/m2
19:42 7.2 °C 5.7 °C 1022.0 hPa Calm     90% 0.0 mm 0 W/m2
19:47 7.2 °C 5.7 °C 1022.0 hPa SSE 1.4 km/h 6.4 km/h 90% 0.0 mm 0 W/m2
19:52 7.2 °C 5.7 °C 1022.0 hPa NE 1.4 km/h 4.8 km/h 90% 0.0 mm 0 W/m2
19:58 7.2 °C 5.7 °C 1022.0 hPa Calm   1.6 km/h 90% 0.0 mm 0 W/m2
20:03 7.2 °C 5.7 °C 1022.0 hPa Calm     90% 0.0 mm 0 W/m2
20:08 7.2 °C 5.7 °C 1022.4 hPa NNE 1.4 km/h 3.2 km/h 90% 0.0 mm 0 W/m2
20:13 7.2 °C 5.7 °C 1022.0 hPa Calm     90% 0.0 mm 0 W/m2
20:18 7.2 °C 5.7 °C 1022.0 hPa Calm   1.6 km/h 90% 0.0 mm 0 W/m2
20:23 7.2 °C 5.7 °C 1022.0 hPa Calm     90% 0.0 mm 0 W/m2
20:28 7.1 °C 5.7 °C 1022.0 hPa Calm   3.2 km/h 91% 0.0 mm 0 W/m2
20:33 7.1 °C 5.7 °C 1022.0 hPa North 3.2 km/h 3.2 km/h 91% 0.0 mm 0 W/m2
20:38 7.1 °C 5.7 °C 1022.0 hPa Calm     91% 0.0 mm 0 W/m2
20:43 7 °C 5.6 °C 1022.4 hPa Calm   1.6 km/h 91% 0.0 mm 0 W/m2
20:48 7 °C 5.6 °C 1022.4 hPa Calm   1.6 km/h 91% 0.0 mm 0 W/m2
20:53 6.9 °C 5.5 °C 1022.4 hPa NE 4.7 km/h 4.8 km/h 91% 0.0 mm 0 W/m2
20:58 7 °C 5.6 °C 1022.4 hPa Calm     91% 0.0 mm 0 W/m2
21:03 6.9 °C 5.5 °C 1022.4 hPa Calm   1.6 km/h 91% 0.0 mm 0 W/m2
21:08 6.9 °C 5.7 °C 1022.4 hPa Calm   1.6 km/h 92% 0.0 mm 0 W/m2
21:13 6.9 °C 5.7 °C 1022.4 hPa Calm   3.2 km/h 92% 0.0 mm 0 W/m2
21:18 6.9 °C 5.7 °C 1022.4 hPa NNE 1.4 km/h 4.8 km/h 92% 0.0 mm 0 W/m2
21:23 6.9 °C 5.7 °C 1022.4 hPa NE 1.4 km/h 6.4 km/h 92% 0.0 mm 0 W/m2
21:28 6.9 °C 5.7 °C 1022.4 hPa ENE 1.4 km/h 3.2 km/h 92% 0.0 mm 0 W/m2
21:33 6.9 °C 5.7 °C 1022.7 hPa ENE 1.4 km/h 3.2 km/h 92% 0.0 mm 0 W/m2
21:38 6.9 °C 5.7 °C 1022.7 hPa ENE 1.4 km/h 1.6 km/h 92% 0.0 mm 0 W/m2
21:43 6.9 °C 5.7 °C 1022.4 hPa Calm   1.6 km/h 92% 0.0 mm 0 W/m2
21:48 6.9 °C 5.7 °C 1022.4 hPa ENE 1.4 km/h 3.2 km/h 92% 0.0 mm 0 W/m2
21:53 6.8 °C 5.6 °C 1022.4 hPa NE 1.4 km/h 3.2 km/h 92% 0.0 mm 0 W/m2
21:58 6.8 °C 5.6 °C 1022.7 hPa Calm   1.6 km/h 92% 0.0 mm 0 W/m2
22:03 6.8 °C 5.6 °C 1022.4 hPa Calm   1.6 km/h 92% 0.0 mm 0 W/m2
22:08 6.7 °C 5.5 °C 1022.7 hPa Calm     92% 0.0 mm 0 W/m2
22:13 6.7 °C 5.5 °C 1022.4 hPa NNE 3.2 km/h 3.2 km/h 92% 0.0 mm 0 W/m2
22:18 6.7 °C 5.5 °C 1022.7 hPa Calm   1.6 km/h 92% 0.0 mm 0 W/m2
22:23 6.7 °C 5.5 °C 1022.7 hPa NNE 1.4 km/h 3.2 km/h 92% 0.0 mm 0 W/m2
22:28 6.7 °C 5.5 °C 1022.7 hPa NE 1.4 km/h 3.2 km/h 92% 0.0 mm 0 W/m2
22:33 6.7 °C 5.5 °C 1022.7 hPa Calm     92% 0.0 mm 0 W/m2
22:38 6.7 °C 5.5 °C 1022.7 hPa Calm   1.6 km/h 92% 0.0 mm 0 W/m2
22:43 6.6 °C 5.4 °C 1022.7 hPa ESE 1.4 km/h 3.2 km/h 92% 0.0 mm 0 W/m2
22:48 6.6 °C 5.4 °C 1022.7 hPa NE 1.4 km/h 3.2 km/h 92% 0.0 mm 0 W/m2
22:53 6.6 °C 5.4 °C 1022.7 hPa Calm     92% 0.0 mm 0 W/m2
22:58 6.6 °C 5.4 °C 1022.7 hPa Calm   3.2 km/h 92% 0.0 mm 0 W/m2
23:03 6.6 °C 5.4 °C 1022.7 hPa Calm   4.8 km/h 92% 0.0 mm 0 W/m2
23:08 6.5 °C 5.4 °C 1022.7 hPa Calm   3.2 km/h 93% 0.0 mm 0 W/m2
23:13 6.5 °C 5.4 °C 1022.7 hPa East 3.2 km/h 3.2 km/h 93% 0.0 mm 0 W/m2
23:18 6.5 °C 5.4 °C 1022.7 hPa East 1.4 km/h 4.8 km/h 93% 0.0 mm 0 W/m2
23:23 6.4 °C 5.4 °C 1022.7 hPa NE 1.4 km/h 8 km/h 93% 0.0 mm 0 W/m2
23:28 6.4 °C 5.4 °C 1022.7 hPa Calm   4.8 km/h 93% 0.0 mm 0 W/m2
23:33 6.4 °C 5.4 °C 1022.7 hPa NE 1.4 km/h 8 km/h 93% 0.0 mm 0 W/m2
23:38 6.4 °C 5.4 °C 1022.7 hPa Calm   6.4 km/h 93% 0.0 mm 0 W/m2
23:43 6.4 °C 5.4 °C 1022.7 hPa Calm   6.4 km/h 93% 0.0 mm 0 W/m2
23:48 6.4 °C 5.4 °C 1022.7 hPa NW 1.4 km/h 4.8 km/h 93% 0.0 mm 0 W/m2
23:53 6.4 °C 5.4 °C 1022.7 hPa Calm   3.2 km/h 93% 0.0 mm 0 W/m2
23:58 6.3 °C 5.3 °C 1022.7 hPa Calm   3.2 km/h 93% 0.0 mm 0 W/m2
Juneau County Weather
Compliments of Weather Underground - 4 mb